Temp
16 16 16 16 17 17 18 18 18 18 18 18 18 18 18 18 18 18 18 18 18 18 18 18 18 18 18 18 18 18 18 18 18 18 17 17 17 17 17 17 17 17
16 16 16 16 16 17 18 19 19 18 18 19 18 18 18 18 18 18 18 18 18 18 18 18 18 18 18 18 18 18 17 17 17 17 17 17 17 17 17 17 17 17
16 16 16 16 16 17 18 19 19 18 19 19 18 18 18 18 18 18 18 18 18 18 18 18 18 18 18 18 18 18 18 18 17 17 17 17 17 17 17 17 17 17
17 17 17 16 17 18 18 18 18 19 19 18 18 18 18 18 18 18 18 18 18 18 18 18 18 18 18 18 18 18 18 18 17 17 17 17 17 17 17 17 17 17
16 16 16 16 17 18 18 18 18 19 19 18 18 18 18 18 18 18 18 18 18 18 18 18 18 18 18 18 18 18 18 18 17 17 17 17 17 17 17 17 17 17
16 16 16 16 17 18 18 18 19 19 19 18 19 19 19 18 18 18 18 18 18 18 18 18 18 18 18 18 18 18 18 18 18 17 17 17 17 17 17 17 17 17
16 16 16 17 18 18 18 18 18 19 19 19 19 19 18 18 18 18 18 18 18 18 18 18 18 18 18 18 18 18 18 18 18 18 18 18 17 17 17 17 17 17
15 15 16 17 18 18 18 18 18 19 19 19 19 19 18 18 18 18 18 19 18 18 18 18 18 18 18 18 18 18 18 18 18 18 18 18 18 18 17 17 17 17
14 14 15 17 18 18 18 18 19 19 19 19 19 18 19 19 19 19 19 19 19 18 18 18 18 18 18 18 18 18 18 18 18 18 18 18 18 18 18 17 17 17
14 14 15 16 17 18 18 18 18 19 19 19 19 19 19 19 19 19 19 19 19 18 19 19 19 19 19 18 19 19 19 19 19 19 19 19 18 18 18 18 17 17
14 14 14 15 16 17 18 18 18 19 19 19 19 19 19 19 19 19 19 19 19 19 19 19 19 19 19 19 19 19 19 19 19 19 19 19 19 19 19 18 18 18
14 14 14 15 15 16 17 18 18 18 19 19 19 19 19 19 19 19 19 19 19 19 19 19 19 19 19 19 19 19 19 19 19 19 19 19 19 19 19 18 18 18
14 14 15 15 15 16 17 18 18 18 19 19 19 19 19 19 19 19 19 19 19 19 18 18 18 18 18 19 19 19 19 19 19 19 19 19 19 19 19 18 18 17
14 14 14 14 15 16 17 18 18 18 18 19 19 19 19 19 19 19 18 18 18 18 18 18 18 18 18 18 18 18 18 19 19 19 19 19 19 19 19 18 18 18
14 14 14 14 15 16 17 17 18 18 19 19 19 19 19 19 19 18 18 18 18 18 18 18 18 18 18 18 18 18 18 18 18 19 19 19 19 18 19 18 18 17
14 14 14 14 13 15 17 17 17 17 18 19 18 18 19 18 18 18 18 18 18 18 18 18 18 18 18 18 18 18 18 18 18 18 18 19 19 18 18 18 18 17
14 14 14 14 13 14 16 16 16 15 17 18 18 18 18 18 17 17 17 17 18 18 17 17 17 17 17 17 17 17 18 18 18 18 18 18 19 18 18 18 18 18
14 14 14 14 14 14 15 15 15 15 16 17 17 17 17 17 17 17 17 17 17 17 17 16 16 16 17 17 17 17 17 18 18 18 18 18 18 18 18 18 18 18
13 13 14 14 14 15 15 14 15 16 16 16 16 16 16 16 16 16 16 16 17 17 16 16 16 16 16 16 17 17 17 17 17 18 18 18 18 18 18 18 18 18
13 13 13 14 14 14 14 14 15 15 15 15 16 16 16 16 15 16 16 16 16 16 16 16 15 15 16 16 17 17 17 17 17 17 17 17 17 17 17 17 17 17
12 13 13 13 13 14 14 14 14 14 14 15 15 15 15 15 15 15 15 15 15 15 15 15 14 14 15 16 16 16 17 17 17 17 17 17 17 17 17 17 17 17
11 12 12 12 13 13 13 13 13 14 14 14 14 14 14 14 14 14 14 13 14 14 14 14 13 14 14 15 15 16 16 17 16 16 16 16 16 16 16 16 16 16
10 11 11 11 12 12 12 12 13 13 13 13 14 13 13 13 12 12 13 13 13 13 13 13 13 13 14 14 15 15 16 16 16 15 15 15 14 15 15 15 15 15
9 10 10 11 11 11 11 12 12 12 13 13 13 13 12 12 12 12 12 12 12 12 12 13 13 13 13 14 14 15 15 15 15 15 14 14 13 13 14 14 13 13
8 9 9 10 10 10 11 12 12 12 12 12 12 12 11 11 11 11 11 11 12 12 12 12 13 13 13 14 14 14 15 14 14 14 13 12 12 12 12 12 12 12
8 8 9 9 9 9 10 11 11 11 11 11 11 11 11 11 11 11 11 11 11 11 12 12 12 12 12 13 13 14 14 14 14 13 13 12 11 11 11 11 11 11
Height
787 789 790 789 787 785 786 788 791 793 795 797 800 802 804 806 807 809 811 813 816 818 820 822 823 825 827 829 830 832 833 834 835 837 838 839 840 841 842 843 844 845
787 788 790 792 791 789 789 789 791 793 795 797 799 801 803 805 806 808 810 812 815 817 819 821 822 824 826 828 829 831 832 833 834 836 837 838 839 840 840 841 843 844
787 788 790 792 792 791 791 791 793 794 795 797 799 801 803 804 806 807 809 811 813 816 818 820 821 823 825 827 829 830 831 832 833 835 836 837 838 839 839 840 842 843
786 788 789 791 792 791 792 793 794 794 795 797 798 800 802 803 805 806 808 810 813 815 817 819 821 823 825 827 828 829 831 832 833 834 835 836 838 838 839 840 841 842
785 787 789 791 792 792 793 794 794 795 795 796 798 800 801 803 804 805 808 810 812 815 817 819 821 823 825 826 827 829 830 831 832 833 834 835 837 837 838 839 840 841
783 785 787 790 792 793 794 794 795 795 795 796 797 800 801 802 803 805 807 810 812 814 817 819 821 823 824 825 827 828 829 830 831 832 833 834 835 836 837 838 839 840
781 783 785 787 790 792 794 795 795 795 795 796 797 799 801 802 803 804 807 809 812 814 817 819 821 822 824 825 826 827 828 829 830 831 832 833 834 835 836 837 838 839
780 782 784 786 788 791 793 794 795 795 795 796 798 799 800 802 803 804 807 809 811 814 816 818 820 822 823 824 825 826 827 828 829 830 831 832 833 834 835 837 838 839
780 782 784 786 788 790 791 793 793 794 795 796 798 799 800 802 803 805 807 809 811 814 816 818 820 821 822 823 824 825 826 827 828 829 830 831 832 833 834 835 837 837
781 782 783 786 789 789 789 792 793 794 795 796 798 799 800 802 803 805 807 809 811 814 816 817 819 820 821 822 823 825 826 827 828 829 830 831 831 832 833 834 835 836
779 782 783 786 789 788 788 790 792 793 794 796 798 799 800 802 804 806 808 810 812 814 816 817 819 820 821 822 823 824 825 827 827 828 829 830 831 832 832 833 834 835
778 781 782 785 789 789 787 789 791 793 793 795 798 799 800 802 805 807 809 810 812 813 815 817 818 819 820 821 823 824 825 826 827 828 829 830 831 831 832 833 834 835
776 780 782 785 789 789 787 789 791 791 792 795 798 800 801 803 805 807 809 810 812 813 815 816 817 819 820 821 823 824 825 826 827 828 829 830 830 831 832 833 834 834
776 780 782 785 789 788 788 790 790 790 793 796 799 800 803 805 806 808 809 810 811 813 815 817 817 819 820 822 823 824 825 826 827 828 829 830 831 831 832 833 834 834
777 779 782 786 787 786 787 789 789 791 794 797 799 801 803 805 806 808 809 810 812 813 815 817 818 819 821 822 823 824 825 826 827 828 829 830 831 831 832 833 833 834
776 779 782 786 786 784 785 788 790 794 796 797 799 801 803 805 806 808 809 810 812 814 816 817 818 820 821 822 824 825 826 827 828 828 829 830 830 831 832 832 833 834
776 779 782 786 786 785 785 789 795 798 798 797 799 802 804 805 807 808 809 811 813 815 816 818 819 821 822 823 824 826 827 827 828 829 829 830 830 830 831 832 833 834
777 779 782 786 786 785 787 794 800 801 799 798 800 803 805 806 807 809 810 812 814 815 817 819 820 821 822 824 825 826 827 828 829 829 830 830 830 830 831 831 832 833
779 781 783 786 786 787 792 798 801 800 799 800 802 804 805 807 808 809 811 813 814 816 817 819 820 822 823 824 825 827 828 829 829 830 830 830 830 830 831 831 832 833
781 782 784 786 788 791 796 799 799 798 800 801 802 804 806 807 809 810 812 814 815 816 818 819 821 822 823 824 826 827 828 829 830 830 831 831 831 830 831 832 833 834
782 783 785 787 790 793 796 798 798 798 801 802 803 805 807 809 811 812 813 815 816 818 819 820 822 823 824 825 826 827 828 829 830 830 831 831 831 832 832 833 834 835
785 786 787 789 792 794 796 798 798 799 801 802 804 807 809 810 812 813 815 816 818 819 820 821 823 824 824 825 826 827 828 829 830 830 830 831 832 832 833 834 835 835
790 790 791 792 793 795 797 799 799 800 802 804 806 808 810 812 813 815 816 817 819 821 822 823 824 825 826 826 827 828 828 829 829 830 830 832 832 833 834 834 835 836
795 795 794 795 796 796 798 800 801 802 803 805 807 810 811 813 814 816 817 819 820 822 824 824 825 826 827 827 828 829 829 829 830 830 831 832 833 834 835 835 836 836
799 798 798 798 799 799 800 801 803 803 804 806 809 812 813 815 816 817 818 820 822 824 824 824 825 826 827 828 828 829 830 831 831 831 832 833 834 835 836 836 837 837
805 803 802 802 802 803 804 804 805 805 806 807 811 814 817 818 818 818 820 822 824 824 824 825 826 827 828 829 829 830 831 832 833 833 834 835 835 836 836 837 838 838
Wind_Speed
11 12 15 18 23 28 31 31 29 27 25 23 23 24 24 23 21 20 20 19 18 16 16 15 14 15 15 15 15 15 14 14 14 14 15 15 14 14 15 14 16 16
10 12 15 16 19 25 29 29 28 26 24 23 23 23 24 22 20 20 20 19 18 16 16 15 14 15 16 16 16 15 15 14 14 14 14 16 15 14 15 13 15 16
9 13 18 19 22 26 27 28 26 24 23 22 22 22 23 22 20 20 20 20 18 17 16 14 15 16 16 16 15 15 15 15 14 13 12 15 16 15 15 13 15 16
11 16 21 23 25 26 26 26 24 23 22 21 21 23 23 22 21 21 20 20 19 17 16 15 14 14 13 14 15 15 13 13 13 12 11 13 14 14 16 14 15 16
15 19 22 22 24 25 24 23 23 23 22 21 23 24 23 22 21 21 20 19 19 17 16 16 14 13 12 13 14 14 13 13 13 11 11 12 13 12 14 14 14 15
18 21 22 21 22 23 22 22 22 22 21 23 25 24 21 22 22 20 20 19 19 18 17 16 14 13 13 12 12 12 12 12 13 13 12 12 13 12 11 13 14 14
20 22 22 22 23 22 22 22 21 21 23 25 26 24 21 21 21 20 20 18 18 18 17 15 14 13 13 12 12 12 10 10 12 13 12 12 13 12 11 13 14 12
20 19 20 22 24 23 22 22 21 23 26 27 25 23 21 20 20 21 20 17 17 19 18 15 13 13 12 12 12 11 10 10 10 11 11 12 13 12 12 13 14 13
14 18 22 23 24 25 23 24 25 26 26 25 23 23 21 19 19 19 19 16 17 20 18 14 13 12 11 12 11 10 11 9 8 10 10 11 12 11 11 12 13 14
13 19 24 24 24 25 25 25 26 26 24 22 21 21 19 18 17 16 16 16 18 19 16 14 14 11 10 13 12 10 10 7 7 9 10 11 10 9 10 11 12 13
18 21 23 23 22 22 26 26 24 24 23 21 19 18 18 19 17 15 15 15 16 16 14 14 15 12 11 13 10 8 9 8 8 8 8 8 6 7 11 11 10 10
22 23 23 25 21 19 25 26 23 22 22 20 18 18 19 19 17 15 14 14 15 15 13 15 15 12 12 12 10 8 8 8 9 8 7 7 5 7 12 11 9 10
23 23 25 26 22 18 23 25 24 23 22 19 18 20 20 18 16 15 14 14 15 15 14 16 16 14 13 12 11 8 7 8 9 8 8 7 7 10 11 9 8 10
21 22 25 24 20 20 23 23 23 23 21 20 20 19 18 17 17 16 16 17 18 18 17 17 17 15 14 13 11 8 7 8 8 7 8 10 11 11 9 6 6 9
21 21 23 21 19 23 24 21 22 23 22 22 21 19 18 17 17 19 20 21 20 19 17 16 15 14 14 13 11 9 8 8 6 5 6 8 10 11 8 6 6 7
22 22 21 19 18 20 22 22 21 20 22 23 21 20 20 18 18 20 20 20 19 17 15 14 13 12 12 12 11 10 9 7 6 5 3 3 7 9 9 8 7 6
23 23 21 19 18 18 22 22 18 15 19 23 22 22 21 20 21 22 21 19 17 15 14 13 12 11 10 10 10 10 9 7 5 5 4 3 4 6 10 11 10 8
22 23 23 20 19 20 23 22 20 20 23 25 25 23 22 22 22 21 20 18 16 14 13 12 11 10 9 8 8 9 9 8 6 5 4 3 2 3 10 13 12 10
20 24 25 22 21 22 23 22 23 25 25 25 25 24 23 23 22 21 19 17 15 14 13 12 10 9 7 6 7 7 7 9 9 8 7 7 7 6 10 14 13 13
22 25 26 25 25 25 25 24 26 27 26 26 25 24 23 22 21 20 18 16 15 14 12 11 10 9 7 6 6 7 6 7 9 10 10 10 12 13 12 12 12 13
24 26 27 27 27 26 25 25 27 28 26 25 24 22 22 21 19 18 18 16 15 13 12 12 11 9 8 7 6 6 5 6 8 10 11 11 12 14 14 14 12 12
25 26 28 29 28 27 26 26 27 28 26 25 24 23 21 20 19 18 17 17 16 13 13 14 13 11 10 10 10 9 7 7 10 12 14 14 14 14 15 16 14 13
22 25 27 28 28 28 27 26 26 27 24 23 23 23 21 21 20 19 18 17 16 14 13 14 14 12 11 11 11 11 11 11 13 15 16 16 16 15 14 15 15 13
20 23 25 26 26 26 26 26 25 25 22 20 20 21 21 20 20 20 19 18 17 16 15 15 15 14 12 10 10 11 12 14 15 17 18 17 15 15 13 13 13 12
21 22 23 24 24 24 24 23 22 22 21 20 19 20 20 19 19 20 20 19 18 18 17 16 16 15 12 11 10 9 10 11 13 16 19 18 15 14 14 14 13 12
21 21 21 22 22 22 22 22 21 22 23 23 21 19 18 18 18 20 21 20 19 19 19 19 18 17 15 13 11 9 8 8 9 14 18 17 15 13 13 12 12 12
Wind_Direction
238 228 212 197 188 183 181 182 185 184 181 177 174 170 162 155 154 160 161 158 158 159 162 162 160 164 169 169 171 173 175 179 181 181 183 187 188 184 182 183 179 175
247 223 206 202 195 185 183 185 184 181 177 172 167 162 156 152 154 158 154 153 155 157 161 164 162 163 163 164 168 169 172 177 181 181 180 182 184 182 180 182 182 181
246 218 203 201 194 186 185 185 180 177 171 163 160 157 154 154 155 154 150 151 153 153 156 158 159 161 162 166 168 167 173 182 185 185 182 181 182 180 182 186 186 186
230 209 197 197 192 186 185 182 176 174 165 158 160 159 156 156 154 150 150 152 152 149 148 147 150 156 160 165 167 166 172 178 180 182 180 179 182 180 182 191 191 187
207 196 192 196 193 186 185 182 176 171 163 158 160 159 157 156 151 148 150 152 150 147 146 147 149 156 159 161 165 168 171 172 171 175 177 178 184 185 187 197 196 187
195 189 191 197 196 191 188 184 174 168 163 159 156 153 152 152 149 148 149 149 149 147 147 149 150 155 156 156 161 165 168 170 170 175 180 179 183 189 193 200 200 194
195 190 190 194 193 189 187 182 172 167 164 157 152 149 149 148 147 148 147 146 147 147 147 147 148 151 152 154 159 160 164 168 169 177 184 180 180 187 193 198 199 199
196 188 182 184 182 178 180 177 168 163 159 153 149 148 146 145 146 150 151 148 145 145 145 143 143 145 148 153 154 157 165 169 168 172 178 175 176 183 193 198 198 200
189 181 172 174 176 171 170 168 161 155 152 149 147 145 144 145 146 150 155 154 150 147 145 142 143 146 152 154 145 143 158 171 177 179 180 177 173 177 189 194 194 200
185 180 170 170 172 164 158 157 152 149 147 143 142 144 145 146 145 144 145 149 151 148 144 144 148 146 147 150 145 144 157 164 166 174 179 176 173 183 192 189 190 199
180 176 170 172 173 159 151 149 145 144 142 136 141 148 144 142 144 145 141 142 146 146 144 147 149 144 139 144 144 144 155 156 145 148 158 159 161 185 189 183 183 191
175 172 169 173 174 157 149 148 143 140 138 136 143 145 140 140 143 144 143 143 145 148 150 148 146 144 143 149 151 138 135 150 155 155 157 149 138 160 172 174 173 175
176 171 163 168 174 162 151 148 144 141 138 140 142 135 135 140 141 140 144 148 147 143 143 142 137 132 130 140 152 140 115 123 143 149 147 143 136 140 151 162 169 173
174 171 162 169 176 163 153 149 144 141 139 140 139 135 136 140 140 140 139 137 134 126 124 128 127 121 116 122 137 138 119 119 131 129 120 125 132 134 139 158 176 181
165 164 163 176 174 154 147 142 133 132 136 137 134 134 136 134 133 135 130 124 121 118 117 118 116 113 107 109 119 124 122 128 139 131 111 121 136 136 136 152 163 179
159 157 159 171 167 147 139 132 121 120 130 133 132 133 135 133 131 130 127 121 118 116 115 112 111 112 107 106 110 113 119 130 142 138 120 137 154 147 143 144 139 149
153 154 154 155 150 134 127 129 127 124 127 129 131 132 133 133 129 125 122 120 119 117 115 113 113 113 112 113 112 109 115 125 131 128 117 122 154 158 154 147 136 133
142 146 149 148 140 128 126 135 142 137 128 126 127 128 128 127 124 121 119 118 118 117 113 113 113 113 118 123 122 118 112 108 112 115 104 91 88 159 164 154 137 132
135 138 143 142 134 130 135 143 141 133 127 125 124 124 123 120 117 116 114 113 115 113 107 107 109 112 120 129 137 140 120 99 97 95 81 66 61 94 155 161 145 135
126 128 133 134 135 136 138 137 132 127 125 124 122 119 116 113 111 110 107 106 108 110 110 109 104 102 111 124 140 154 143 113 101 90 76 70 76 89 114 136 138 139
115 119 122 127 133 135 132 126 124 122 120 118 117 112 109 107 108 108 106 104 104 109 112 108 97 93 97 103 115 134 147 133 108 88 80 85 91 95 101 108 121 138
107 112 116 121 126 126 122 117 117 116 114 114 113 108 106 107 107 107 106 104 101 104 106 99 89 87 89 90 96 106 121 125 106 89 87 90 89 93 103 108 114 126
100 105 110 116 119 119 116 113 112 112 111 112 112 110 109 110 108 105 105 104 99 97 98 94 84 77 80 86 88 92 102 109 103 94 89 86 84 87 98 105 103 103
87 97 103 107 108 109 111 112 111 111 110 110 111 110 110 110 110 107 102 99 96 91 89 88 82 72 72 79 81 84 92 96 98 97 91 85 84 86 92 97 95 89
73 85 93 96 97 101 107 110 110 110 112 112 112 112 112 111 110 105 97 91 89 86 81 78 76 70 65 68 72 79 85 87 90 92 88 83 83 87 89 88 83 75
63 73 82 87 92 99 107 114 116 117 117 115 111 111 114 113 108 101 95 89 85 82 77 72 70 68 63 61 64 68 73 77 80 84 86 86 86 87 89 82 70 60